{"data":{"norad_id":67099,"intl_designator":"2025-298AA","name":"STARLINK-36193","alt_names":[],"object_type":"PAYLOAD","status":"ACTIVE","operator":null,"country":"US","launch_date":"2025-12-14","launch_site_code":"AFWTR","launch_vehicle":null,"mission":null,"orbit_class":"UNKNOWN","rcs_meters":null,"size_class":null,"mass_kg":null,"dimensions":null,"purposes":["comms"],"wikipedia_slug":null,"has_3d_model":false,"image_url":null,"decayed_at":null,"tle_current":{"epoch":"2026-09-20T09:11:26.578464Z","epoch_age_seconds":88381,"freshness":"FRESH","line1":"1 67099U 25298AA  26263.38294651 -.00000346  00000+0 -21176-4 0  9999","line2":"2 67099  69.9988 243.4498 0003847 264.4741  95.5979 14.98332308 42388","mean_motion":14.98332308,"eccentricity":0.0003847,"inclination_deg":69.9988,"raan_deg":243.4498,"arg_perigee_deg":264.4741,"mean_anomaly_deg":95.5979,"bstar":-2.1176e-5,"rev_number":4238,"period_min":96.106851084466,"perigee_km":569.37501719453,"apogee_km":574.7224901134,"semimajor_km":6950.185753654,"source":"CELESTRAK","updated_at":"2026-09-21T09:00:36.102648Z"}}}